,,Stat1,,Stat2,,Stat3,,Stat4,,Wind1,,Wind1,
time,status,PR1M_SUM,status,RH1M_AVG,status,SR1M_AVG,status,TA1M_AVG,status,W1dAve1m,status,W1sAve1m,
2000-02-03, 00:00:00,VALID,0,VALID,86.2173,VALID,0,VALID,19.8749,VALID,219,VALID,1.72204,
2000-02-03, 00:01:00,VALID,0,VALID,86.3419,VALID,0,VALID,19.865,VALID,204,VALID,1.49935,
2000-02-03, 00:02:00,VALID,0,VALID,86.5047,VALID,-0.0339617,VALID,19.8521,VALID,231,VALID,1.65933,
2000-02-03, 00:03:00,VALID,0,VALID,86.6827,VALID,-0.0169808,VALID,19.8163,VALID,219,VALID,1.67057,
2000-02-03, 00:04:01,VALID,0,VALID,86.8264,VALID,-0.0339617,VALID,19.8001,VALID,223,VALID,2.35978,
2000-02-03, 00:05:01,VALID,0,VALID,86.9015,VALID,-0.0339617,VALID,19.7715,VALID,202,VALID,1.94785,
2000-02-03, 00:06:00,VALID,0,VALID,87.063,VALID,-0.0339617,VALID,19.7353,VALID,213,VALID,1.88802,
2000-02-03, 00:07:00,VALID,0,VALID,87.2728,VALID,0,VALID,19.7097,VALID,205,VALID,1.77012,
2000-02-03, 00:08:00,VALID,0,VALID,87.4343,VALID,-0.0169808,VALID,19.6942,VALID,225,VALID,1.64323,
2000-02-03, 00:09:00,VALID,0,VALID,87.5398,VALID,-0.0509425,VALID,19.6749,VALID,205,VALID,1.45353,
2000-02-03, 00:10:00,VALID,0,VALID,87.55,VALID,-0.0339617,VALID,19.6714,VALID,219,VALID,3.04202,
2000-02-03, 00:11:00,VALID,0,VALID,87.4292,VALID,-0.0339617,VALID,19.6967,VALID,226,VALID,1.71294,
2000-02-03, 00:12:00,VALID,0,VALID,87.3936,VALID,0,VALID,19.7228,VALID,215,VALID,2.47344,
2000-02-03, 00:13:00,VALID,0,VALID,87.4521,VALID,-0.0169808,VALID,19.7293,VALID,207,VALID,1.92969,
2000-02-03, 00:14:00,VALID,0,VALID,87.6377,VALID,-0.0169808,VALID,19.7005,VALID,209,VALID,1.85177,
2000-02-03, 00:15:00,VALID,0,VALID,87.6517,VALID,-0.0169808,VALID,19.6647,VALID,221,VALID,2.41226,
2000-02-03, 00:16:00,VALID,0,VALID,87.6937,VALID,-0.0679233,VALID,19.6483,VALID,211,VALID,2.62089,
2000-02-03, 00:17:00,VALID,0,VALID,87.583,VALID,-0.0509425,VALID,19.6905,VALID,210,VALID,1.72396,
2000-02-03, 00:18:00,VALID,0,VALID,87.475,VALID,-0.0169808,VALID,19.7072,VALID,194,VALID,2.74238,
2000-02-03, 00:19:00,VALID,0,VALID,87.0566,VALID,-0.0509425,VALID,19.7591,VALID,189,VALID,2.64084,
2000-02-03, 00:20:00,VALID,0,VALID,86.9371,VALID,-0.0509425,VALID,19.8044,VALID,229,VALID,2.04996,
2000-02-03, 00:21:00,VALID,0,VALID,86.8391,VALID,-0.0849042,VALID,19.821,VALID,206,VALID,2.77163,
2000-02-03, 00:22:00,VALID,0,VALID,86.7705,VALID,-0.0509425,VALID,19.8332,VALID,195,VALID,1.95539,
2000-02-03, 00:23:00,VALID,0,VALID,86.7667,VALID,-0.0679233,VALID,19.8337,VALID,201,VALID,2.35457,
2000-02-03, 00:24:00,VALID,0,VALID,86.6904,VALID,-0.0339617,VALID,19.8493,VALID,194,VALID,2.38887,
2000-02-03, 00:25:01,VALID,0,VALID,86.726,VALID,-0.0849042,VALID,19.8593,VALID,185,VALID,1.55469,
2000-02-03, 00:26:00,VALID,0,VALID,86.9549,VALID,-0.0679233,VALID,19.8332,VALID,222,VALID,0.744655,
2000-02-03, 00:27:00,VALID,0,VALID,87.1863,VALID,-0.0339617,VALID,19.7713,VALID,210,VALID,1.41867,
2000-02-03, 00:28:00,VALID,0,VALID,87.3071,VALID,-0.0339617,VALID,19.7529,VALID,209,VALID,2.00411,
2000-02-03, 00:29:00,VALID,0,VALID,87.4393,VALID,-0.0679233,VALID,19.7198,VALID,212,VALID,1.52524,
2000-02-03, 00:30:00,VALID,0,VALID,87.6657,VALID,-0.0849042,VALID,19.6883,VALID,217,VALID,1.84336,
2000-02-03, 00:31:00,VALID,0,VALID,87.8412,VALID,-0.0679233,VALID,19.6562,VALID,201,VALID,1.52691,
2000-02-03, 00:32:00,VALID,0,VALID,88.0345,VALID,-0.0849042,VALID,19.617,VALID,197,VALID,1.39083,
2000-02-03, 00:33:00,VALID,0,VALID,88.2417,VALID,-0.0679233,VALID,19.5914,VALID,199,VALID,1.59115,
2000-02-03, 00:34:00,VALID,0,VALID,88.346,VALID,-0.0339617,VALID,19.5722,VALID,203,VALID,1.62109,
2000-02-03, 00:35:00,VALID,0,VALID,88.4376,VALID,-0.0509425,VALID,19.5424,VALID,207,VALID,1.1278,
2000-02-03, 00:36:00,VALID,0,VALID,88.4795,VALID,-0.0849042,VALID,19.5332,VALID,214,VALID,2.13438,
2000-02-03, 00:37:01,VALID,0,VALID,88.3244,VALID,-0.0509425,VALID,19.5456,VALID,197,VALID,2.2053,
2000-02-03, 00:38:00,VALID,0,VALID,88.098,VALID,-0.0339617,VALID,19.6107,VALID,215,VALID,1.83224,
2000-02-03, 00:39:00,VALID,0,VALID,87.9302,VALID,-0.0679233,VALID,19.6366,VALID,209,VALID,1.98678,
2000-02-03, 00:40:00,VALID,0,VALID,87.8259,VALID,-0.0509425,VALID,19.6495,VALID,212,VALID,2.04276,
2000-02-03, 00:41:00,VALID,0,VALID,87.8959,VALID,-0.0339617,VALID,19.649,VALID,221,VALID,2.02023,
2000-02-03, 00:42:00,VALID,0,VALID,88.0014,VALID,-0.0509425,VALID,19.6423,VALID,215,VALID,1.92051,
2000-02-03, 00:43:00,VALID,0,VALID,87.8984,VALID,-0.0679233,VALID,19.6259,VALID,211,VALID,1.86176,
2000-02-03, 00:44:00,VALID,0,VALID,87.8386,VALID,-0.0509425,VALID,19.6527,VALID,210,VALID,2.51377,
2000-02-03, 00:45:00,VALID,0,VALID,87.8183,VALID,-0.0849042,VALID,19.6622,VALID,218,VALID,2.001,
2000-02-03, 00:46:00,VALID,0,VALID,88.0052,VALID,-0.0849042,VALID,19.646,VALID,233,VALID,1.92475,
2000-02-03, 00:47:00,VALID,0,VALID,88.2722,VALID,-0.0339617,VALID,19.6008,VALID,223,VALID,1.73157,
2000-02-03, 00:48:00,VALID,0,VALID,88.4452,VALID,-0.0849042,VALID,19.566,VALID,223,VALID,1.94395,
2000-02-03, 00:49:00,VALID,0,VALID,88.6016,VALID,-0.0679233,VALID,19.52,VALID,228,VALID,1.2053,
2000-02-03, 00:50:00,VALID,0,VALID,88.6893,VALID,-0.0679233,VALID,19.4974,VALID,226,VALID,1.68853,
2000-02-03, 00:51:00,VALID,0,VALID,88.8445,VALID,-0.0509425,VALID,19.4651,VALID,226,VALID,1.77744,
2000-02-03, 00:52:00,VALID,0,VALID,88.964,VALID,-0.0509425,VALID,19.433,VALID,226,VALID,2.03721,
2000-02-03, 00:53:00,VALID,0,VALID,88.8864,VALID,-0.101885,VALID,19.4263,VALID,201,VALID,1.78025,
2000-02-03, 00:54:00,VALID,0,VALID,88.7313,VALID,-0.0849042,VALID,19.4524,VALID,204,VALID,2.08066,
2000-02-03, 00:55:00,VALID,0,VALID,88.5253,VALID,-0.101885,VALID,19.4974,VALID,198,VALID,2.1174,
2000-02-03, 00:56:00,VALID,0,VALID,88.3816,VALID,-0.0509425,VALID,19.5334,VALID,206,VALID,1.75164,
2000-02-03, 00:57:00,VALID,0,VALID,88.4045,VALID,-0.0849042,VALID,19.5397,VALID,214,VALID,1.52484,
2000-02-03, 00:58:00,VALID,0,VALID,88.5202,VALID,-0.0679233,VALID,19.5004,VALID,217,VALID,1.47903,
2000-02-03, 00:59:00,VALID,0,VALID,88.6296,VALID,-0.0679233,VALID,19.5076,VALID,227,VALID,2.08313,
2000-02-03, 01:00:00,VALID,0,VALID,88.6372,VALID,-0.0679233,VALID,19.4845,VALID,206,VALID,2.08203,
2000-02-03, 01:01:00,VALID,0,VALID,88.5558,VALID,-0.0849042,VALID,19.4914,VALID,218,VALID,2.02865,
2000-02-03, 01:02:00,VALID,0,VALID,88.4312,VALID,-0.0679233,VALID,19.5044,VALID,205,VALID,1.87294,
2000-02-03, 01:03:00,VALID,0,VALID,88.3091,VALID,-0.0339617,VALID,19.5168,VALID,211,VALID,1.59535,
2000-02-03, 01:04:00,VALID,0,VALID,88.3969,VALID,-0.0679233,VALID,19.5034,VALID,197,VALID,1.20909,
2000-02-03, 01:05:00,VALID,0,VALID,88.3803,VALID,-0.0339617,VALID,19.517,VALID,214,VALID,2.66687,
2000-02-03, 01:06:00,VALID,0,VALID,88.3663,VALID,-0.0509425,VALID,19.52,VALID,209,VALID,1.9252,
2000-02-03, 01:07:00,VALID,0,VALID,88.2252,VALID,-0.0679233,VALID,19.5136,VALID,228,VALID,2.07161,
2000-02-03, 01:08:00,VALID,0,VALID,88.1158,VALID,-0.0509425,VALID,19.5399,VALID,220,VALID,1.90748,
2000-02-03, 01:09:00,VALID,0,VALID,88.1476,VALID,-0.0849042,VALID,19.5362,VALID,206,VALID,1.70513,
2000-02-03, 01:10:00,VALID,0,VALID,88.1311,VALID,-0.0509425,VALID,19.5235,VALID,205,VALID,2.28248,
2000-02-03, 01:11:00,VALID,0,VALID,88.1858,VALID,-0.0169808,VALID,19.53,VALID,222,VALID,1.64583,
2000-02-03, 01:12:00,VALID,0,VALID,88.1286,VALID,-0.0339617,VALID,19.5141,VALID,216,VALID,1.73496,
2000-02-03, 01:13:00,VALID,0,VALID,88.0764,VALID,-0.0339617,VALID,19.5073,VALID,233,VALID,1.88672,
2000-02-03, 01:14:00,VALID,0,VALID,87.9213,VALID,-0.0339617,VALID,19.524,VALID,206,VALID,2.16982,
2000-02-03, 01:15:00,VALID,0,VALID,87.7191,VALID,-0.0509425,VALID,19.559,VALID,203,VALID,2.45873,
2000-02-03, 01:16:00,VALID,0,VALID,87.6123,VALID,-0.0339617,VALID,19.5884,VALID,214,VALID,1.97307,
2000-02-03, 01:17:00,VALID,0,VALID,87.5195,VALID,-0.0339617,VALID,19.5948,VALID,225,VALID,2.52404,
2000-02-03, 01:18:00,VALID,0,VALID,87.5309,VALID,-0.0509425,VALID,19.601,VALID,216,VALID,1.67148,
2000-02-03, 01:19:00,VALID,0,VALID,87.4254,VALID,-0.0509425,VALID,19.5943,VALID,201,VALID,2.90278,
2000-02-03, 01:20:00,VALID,0,VALID,87.3656,VALID,0.0169808,VALID,19.5996,VALID,221,VALID,2.15995,
2000-02-03, 01:21:00,VALID,0,VALID,87.4343,VALID,0.0509425,VALID,19.5834,VALID,232,VALID,1.72115,
2000-02-03, 01:22:00,VALID,0,VALID,87.508,VALID,0,VALID,19.574,VALID,199,VALID,2.34375,
2000-02-03, 01:23:00,VALID,0,VALID,87.2537,VALID,0.0679233,VALID,19.5832,VALID,186,VALID,2.27324,
2000-02-03, 01:24:00,VALID,0,VALID,87.2499,VALID,0.0169808,VALID,19.5998,VALID,213,VALID,2.07676,
2000-02-03, 01:25:00,VALID,0,VALID,87.1583,VALID,0.0339617,VALID,19.5899,VALID,225,VALID,2.57813,
2000-02-03, 01:26:00,VALID,0,VALID,87.1062,VALID,0,VALID,19.5931,VALID,209,VALID,2.30798,
2000-02-03, 01:27:00,VALID,0,VALID,87.0591,VALID,0,VALID,19.5936,VALID,207,VALID,1.51783,
2000-02-03, 01:28:00,VALID,0,VALID,86.8595,VALID,0.0169808,VALID,19.6097,VALID,197,VALID,2.58635,
2000-02-03, 01:29:00,VALID,0,VALID,86.8798,VALID,0,VALID,19.6229,VALID,195,VALID,1.90425,
2000-02-03, 01:30:00,VALID,0,VALID,86.8557,VALID,0,VALID,19.5933,VALID,212,VALID,2.21875,
2000-02-03, 01:31:01,VALID,0,VALID,86.8226,VALID,-0.0339617,VALID,19.613,VALID,214,VALID,2.21029,
2000-02-03, 01:32:00,VALID,0,VALID,87.0477,VALID,0,VALID,19.5874,VALID,196,VALID,2.51727,
2000-02-03, 01:33:00,VALID,0,VALID,87.2321,VALID,0.0169808,VALID,19.5513,VALID,199,VALID,2.15725,
2000-02-03, 01:34:00,VALID,0,VALID,87.2626,VALID,0,VALID,19.5225,VALID,210,VALID,2.55222,
2000-02-03, 01:35:00,VALID,0,VALID,87.1583,VALID,0.0169808,VALID,19.5193,VALID,209,VALID,1.80529,
2000-02-03, 01:36:00,VALID,0,VALID,87.2448,VALID,0,VALID,19.5128,VALID,212,VALID,2.73516,
2000-02-03, 01:37:00,VALID,0,VALID,87.3465,VALID,0,VALID,19.4929,VALID,198,VALID,1.6352,
2000-02-03, 01:38:00,VALID,0,VALID,87.5652,VALID,0,VALID,19.4678,VALID,205,VALID,2.5403,
2000-02-03, 01:39:00,VALID,0,VALID,87.5741,VALID,0,VALID,19.4584,VALID,205,VALID,2.41346,
2000-02-03, 01:40:00,VALID,0,VALID,87.5411,VALID,0,VALID,19.4353,VALID,221,VALID,2.5956,
2000-02-03, 01:41:00,VALID,0,VALID,87.5983,VALID,-0.0169808,VALID,19.4323,VALID,210,VALID,1.96234,
2000-02-03, 01:42:00,VALID,0,VALID,87.7483,VALID,0.0169808,VALID,19.3997,VALID,213,VALID,2.18398,
2000-02-03, 01:43:01,VALID,0,VALID,87.7954,VALID,-0.0169808,VALID,19.3769,VALID,203,VALID,2.70139,
2000-02-03, 01:44:00,VALID,0,VALID,87.9238,VALID,0,VALID,19.3575,VALID,200,VALID,2.28762,
2000-02-03, 01:45:00,VALID,0,VALID,87.9111,VALID,0.0169808,VALID,19.3349,VALID,213,VALID,2.38301,
2000-02-03, 01:46:00,VALID,0,VALID,87.775,VALID,0.0169808,VALID,19.3548,VALID,216,VALID,3.01789,
2000-02-03, 01:47:00,VALID,0,VALID,87.4355,VALID,0,VALID,19.3769,VALID,216,VALID,2.19151,
2000-02-03, 01:48:00,VALID,0,VALID,87.6517,VALID,0.0169808,VALID,19.3997,VALID,224,VALID,1.86406,
2000-02-03, 01:49:00,VALID,0,VALID,87.5754,VALID,0,VALID,19.3709,VALID,216,VALID,1.84093,
2000-02-03, 01:50:00,VALID,0,VALID,87.6123,VALID,0,VALID,19.3384,VALID,222,VALID,2.22574,
2000-02-03, 01:51:00,VALID,0,VALID,87.3313,VALID,0,VALID,19.3578,VALID,209,VALID,2.35657,
2000-02-03, 01:52:00,VALID,0,VALID,86.9294,VALID,0,VALID,19.3993,VALID,211,VALID,2.03783,
2000-02-03, 01:53:00,VALID,0,VALID,86.6573,VALID,0,VALID,19.4785,VALID,209,VALID,2.68209,
2000-02-03, 01:54:00,VALID,0,VALID,86.7285,VALID,-0.0169808,VALID,19.4708,VALID,205,VALID,1.96816,
2000-02-03, 01:55:00,VALID,0,VALID,86.7552,VALID,0,VALID,19.4646,VALID,220,VALID,2.05469,
2000-02-03, 01:56:00,VALID,0,VALID,86.6115,VALID,-0.0169808,VALID,19.4678,VALID,206,VALID,2.32422,
2000-02-03, 01:57:00,VALID,0,VALID,86.6446,VALID,0,VALID,19.4738,VALID,201,VALID,1.6272,
2000-02-03, 01:58:00,VALID,0,VALID,86.9447,VALID,0,VALID,19.4487,VALID,207,VALID,1.58059,
2000-02-03, 01:59:00,VALID,0,VALID,87.1965,VALID,0.0169808,VALID,19.3637,VALID,205,VALID,2.02023,
2000-02-03, 02:00:00,VALID,0,VALID,87.0248,VALID,0.0169808,VALID,19.3416,VALID,214,VALID,1.76367,
2000-02-03, 02:01:00,VALID,0,VALID,86.787,VALID,0,VALID,19.3543,VALID,205,VALID,2.58268,
2000-02-03, 02:02:00,VALID,0,VALID,86.8506,VALID,0,VALID,19.3836,VALID,198,VALID,1.42167,
2000-02-03, 02:03:00,VALID,0,VALID,87.1939,VALID,-0.0169808,VALID,19.3451,VALID,214,VALID,1.43169,
2000-02-03, 02:04:00,VALID,0,VALID,87.3656,VALID,0,VALID,19.313,VALID,206,VALID,2.01933,
2000-02-03, 02:05:01,VALID,0,VALID,87.4304,VALID,-0.0169808,VALID,19.2899,VALID,206,VALID,1.79988,
2000-02-03, 02:06:00,VALID,0,VALID,87.6148,VALID,0,VALID,19.2708,VALID,179,VALID,1.36035,
2000-02-03, 02:07:00,VALID,0,VALID,87.6314,VALID,-0.0169808,VALID,19.2154,VALID,203,VALID,1.94813,
2000-02-03, 02:08:00,VALID,0,VALID,87.7369,VALID,0.0169808,VALID,19.2126,VALID,198,VALID,1.85567,
2000-02-03, 02:09:00,VALID,0,VALID,87.7255,VALID,0,VALID,19.2126,VALID,213,VALID,1.42067,
2000-02-03, 02:10:00,VALID,0,VALID,87.583,VALID,-0.0169808,VALID,19.2064,VALID,211,VALID,1.89535,
2000-02-03, 02:11:00,VALID,0,VALID,87.6199,VALID,0,VALID,19.2129,VALID,216,VALID,1.95954,
2000-02-03, 02:12:00,VALID,0,VALID,87.7979,VALID,0.0169808,VALID,19.1868,VALID,215,VALID,2.04512,
2000-02-03, 02:13:00,VALID,0,VALID,88.0167,VALID,0,VALID,19.1644,VALID,225,VALID,1.79622,
2000-02-03, 02:14:00,VALID,0,VALID,88.2176,VALID,-0.0169808,VALID,19.1256,VALID,211,VALID,1.9669,
2000-02-03, 02:15:00,VALID,0,VALID,88.2583,VALID,-0.101885,VALID,19.0881,VALID,214,VALID,1.80329,
2000-02-03, 02:16:00,VALID,0,VALID,87.9276,VALID,-0.101885,VALID,19.0948,VALID,219,VALID,2.33676,
2000-02-03, 02:17:00,VALID,0,VALID,87.8488,VALID,-0.0679233,VALID,19.1236,VALID,220,VALID,1.85617,
2000-02-03, 02:18:00,VALID,0,VALID,87.7318,VALID,-0.101885,VALID,19.1236,VALID,226,VALID,1.76309,
2000-02-03, 02:19:00,VALID,0,VALID,87.7789,VALID,-0.0849042,VALID,19.1268,VALID,223,VALID,1.85482,
2000-02-03, 02:20:00,VALID,0,VALID,87.9594,VALID,0,VALID,19.0864,VALID,205,VALID,1.27364,
2000-02-03, 02:21:00,VALID,0,VALID,88.0484,VALID,0,VALID,19.0481,VALID,207,VALID,1.74439,
2000-02-03, 02:22:00,VALID,0,VALID,88.0929,VALID,0,VALID,19.0416,VALID,201,VALID,1.37562,
2000-02-03, 02:23:00,VALID,0,VALID,87.9963,VALID,0,VALID,19.0287,VALID,201,VALID,1.72436,
2000-02-03, 02:24:00,VALID,0,VALID,87.9887,VALID,0.0169808,VALID,19.0287,VALID,213,VALID,1.81445,
2000-02-03, 02:25:00,VALID,0,VALID,87.7903,VALID,0.0169808,VALID,19.0151,VALID,213,VALID,1.67361,
2000-02-03, 02:26:00,VALID,0,VALID,87.3643,VALID,-0.0169808,VALID,19.0543,VALID,216,VALID,2.31826,
2000-02-03, 02:27:01,VALID,0,VALID,87.0146,VALID,0,VALID,19.1261,VALID,215,VALID,2.07332,
2000-02-03, 02:28:00,VALID,0,VALID,86.8798,VALID,0,VALID,19.151,VALID,219,VALID,1.88692,
2000-02-03, 02:29:00,VALID,0,VALID,86.698,VALID,0,VALID,19.1743,VALID,208,VALID,1.37981,
2000-02-03, 02:30:00,VALID,0,VALID,86.2847,VALID,0.0169808,VALID,19.1831,VALID,201,VALID,1.66016,
2000-02-03, 02:31:00,VALID,0,VALID,86.0813,VALID,0.0339617,VALID,19.2191,VALID,212,VALID,1.38064,
2000-02-03, 02:32:00,VALID,0,VALID,85.4823,VALID,0,VALID,19.2357,VALID,212,VALID,1.92085,
2000-02-03, 02:33:00,VALID,0,VALID,85.214,VALID,-0.0169808,VALID,19.2805,VALID,227,VALID,2.06711,
2000-02-03, 02:34:00,VALID,0,VALID,84.8516,VALID,0,VALID,19.3389,VALID,221,VALID,1.85136,
2000-02-03, 02:35:00,VALID,0,VALID,84.6469,VALID,0,VALID,19.355,VALID,196,VALID,1.61839,
2000-02-03, 02:36:00,VALID,0,VALID,84.418,VALID,0,VALID,19.3682,VALID,234,VALID,1.93145,
2000-02-03, 02:37:01,VALID,0,VALID,83.9818,VALID,0,VALID,19.4199,VALID,222,VALID,2.2309,
2000-02-03, 02:38:01,VALID,0,VALID,83.8076,VALID,0,VALID,19.4711,VALID,216,VALID,2.42373,
2000-02-03, 02:39:00,VALID,0,VALID,83.7555,VALID,-0.0169808,VALID,19.5327,VALID,224,VALID,1.67929,
2000-02-03, 02:40:00,VALID,0,VALID,83.7263,VALID,0,VALID,19.5685,VALID,200,VALID,1.90954,
2000-02-03, 02:41:00,VALID,0,VALID,83.7835,VALID,0.0339617,VALID,19.5456,VALID,205,VALID,1.61018,
2000-02-03, 02:42:00,VALID,0,VALID,83.8979,VALID,0.0169808,VALID,19.5101,VALID,217,VALID,2.30449,
2000-02-03, 02:43:00,VALID,0,VALID,84.0187,VALID,0,VALID,19.4845,VALID,212,VALID,1.63694,
2000-02-03, 02:44:00,VALID,0,VALID,84.4002,VALID,0,VALID,19.4489,VALID,224,VALID,1.47327,
2000-02-03, 02:45:00,VALID,0,VALID,84.7359,VALID,0,VALID,19.3813,VALID,196,VALID,1.52043,
2000-02-03, 02:46:00,VALID,0,VALID,85.0551,VALID,0,VALID,19.31,VALID,219,VALID,1.79564,
2000-02-03, 02:47:00,VALID,0,VALID,85.1899,VALID,0,VALID,19.2546,VALID,221,VALID,2.41486,
2000-02-03, 02:48:00,VALID,0,VALID,85.242,VALID,0,VALID,19.2489,VALID,227,VALID,2.08594,
2000-02-03, 02:49:01,VALID,0,VALID,84.9495,VALID,0,VALID,19.2551,VALID,226,VALID,2.24848,
2000-02-03, 02:50:00,VALID,0,VALID,85.1543,VALID,0,VALID,19.2516,VALID,219,VALID,2.08594,
2000-02-03, 02:51:00,VALID,0,VALID,85.2255,VALID,0,VALID,19.2355,VALID,220,VALID,2.16587,
2000-02-03, 02:52:00,VALID,0,VALID,85.2624,VALID,0,VALID,19.233,VALID,207,VALID,1.7903,
2000-02-03, 02:53:00,VALID,0,VALID,85.1505,VALID,0,VALID,19.1992,VALID,205,VALID,2.08634,
2000-02-03, 02:54:00,VALID,0,VALID,85.2852,VALID,0,VALID,19.2064,VALID,196,VALID,1.46094,
2000-02-03, 02:55:00,VALID,0,VALID,85.1721,VALID,0.0169808,VALID,19.1873,VALID,189,VALID,1.51367,
2000-02-03, 02:56:00,VALID,0,VALID,85.3196,VALID,0.0169808,VALID,19.1776,VALID,205,VALID,1.51686,
2000-02-03, 02:57:00,VALID,0,VALID,85.4709,VALID,0.0169808,VALID,19.151,VALID,205,VALID,1.80128,
2000-02-03, 02:58:00,VALID,0,VALID,85.5981,VALID,0,VALID,19.1418,VALID,204,VALID,1.55551,
2000-02-03, 02:59:00,VALID,0,VALID,85.6756,VALID,0.0339617,VALID,19.1063,VALID,217,VALID,1.67808,
2000-02-03, 03:00:01,VALID,0,VALID,85.3476,VALID,0.0339617,VALID,19.0566,VALID,204,VALID,1.70586,
2000-02-03, 03:01:00,VALID,0,VALID,85.1021,VALID,0.0169808,VALID,19.1092,VALID,212,VALID,1.97786,
2000-02-03, 03:02:00,VALID,0,VALID,85.0347,VALID,0.0169808,VALID,19.1319,VALID,211,VALID,1.43771,
2000-02-03, 03:03:00,VALID,0,VALID,85.0195,VALID,0.0339617,VALID,19.1381,VALID,203,VALID,1.47356,
2000-02-03, 03:04:00,VALID,0,VALID,84.755,VALID,0.0509425,VALID,19.1413,VALID,206,VALID,1.78351,
2000-02-03, 03:05:00,VALID,0,VALID,84.521,VALID,0.101885,VALID,19.1731,VALID,203,VALID,1.8119,
2000-02-03, 03:06:00,VALID,0,VALID,84.4269,VALID,0.0339617,VALID,19.2322,VALID,206,VALID,2.05664,
2000-02-03, 03:07:00,VALID,0,VALID,84.5388,VALID,0.0679233,VALID,19.2253,VALID,214,VALID,2.03342,
2000-02-03, 03:08:00,VALID,0,VALID,84.4574,VALID,0.0339617,VALID,19.2126,VALID,216,VALID,2.36369,
2000-02-03, 03:09:00,VALID,0,VALID,84.1128,VALID,0.0169808,VALID,19.232,VALID,220,VALID,2.47817,
2000-02-03, 03:10:00,VALID,0,VALID,84.1243,VALID,0.0339617,VALID,19.2742,VALID,212,VALID,2.14433,
2000-02-03, 03:11:00,VALID,0,VALID,84.1955,VALID,0.0339617,VALID,19.2608,VALID,213,VALID,1.65665,
2000-02-03, 03:12:00,VALID,0,VALID,84.3951,VALID,0.0509425,VALID,19.2489,VALID,227,VALID,1.9498,
2000-02-03, 03:13:00,VALID,0,VALID,84.6901,VALID,0.0509425,VALID,19.1706,VALID,225,VALID,2.01736,
2000-02-03, 03:14:00,VALID,0,VALID,84.8732,VALID,0.101885,VALID,19.1222,VALID,229,VALID,1.84087,
2000-02-03, 03:15:00,VALID,0,VALID,84.9343,VALID,0.101885,VALID,19.0894,VALID,219,VALID,1.77163,
2000-02-03, 03:16:00,VALID,0,VALID,84.9839,VALID,0.0509425,VALID,19.0829,VALID,219,VALID,2.04091,
2000-02-03, 03:17:00,VALID,0,VALID,85.0068,VALID,0.0679233,VALID,19.07,VALID,216,VALID,1.58654,
2000-02-03, 03:18:00,VALID,0,VALID,84.8465,VALID,0.101885,VALID,19.0606,VALID,219,VALID,2.56504,
2000-02-03, 03:19:00,VALID,0,VALID,84.6571,VALID,0.0509425,VALID,19.0832,VALID,218,VALID,2.25065,
2000-02-03, 03:20:00,VALID,0,VALID,84.5058,VALID,-0.0509425,VALID,19.1303,VALID,214,VALID,2.09026,
2000-02-03, 03:21:00,VALID,0,VALID,84.479,VALID,-0.0339617,VALID,19.1199,VALID,215,VALID,1.98658,
2000-02-03, 03:22:00,VALID,0,VALID,84.5833,VALID,0,VALID,19.1167,VALID,218,VALID,1.72286,
2000-02-03, 03:23:00,VALID,0,VALID,84.6393,VALID,-0.0169808,VALID,19.0943,VALID,215,VALID,1.5647,
2000-02-03, 03:24:00,VALID,0,VALID,84.4841,VALID,-0.0509425,VALID,19.0717,VALID,206,VALID,1.67109,
2000-02-03, 03:25:00,VALID,0,VALID,84.3341,VALID,-0.0169808,VALID,19.0779,VALID,219,VALID,1.95768,
2000-02-03, 03:26:00,VALID,0,VALID,84.1891,VALID,-0.0339617,VALID,19.1037,VALID,221,VALID,1.99548,
2000-02-03, 03:27:00,VALID,0,VALID,84.0569,VALID,-0.0169808,VALID,19.1557,VALID,226,VALID,1.9996,
2000-02-03, 03:28:00,VALID,0,VALID,84.0492,VALID,-0.0169808,VALID,19.1882,VALID,188,VALID,1.30921,
2000-02-03, 03:29:00,VALID,0,VALID,84.2082,VALID,0,VALID,19.1624,VALID,194,VALID,1.39123,
2000-02-03, 03:30:00,VALID,0,VALID,84.535,VALID,-0.0339617,VALID,19.1169,VALID,198,VALID,1.19141,
2000-02-03, 03:31:01,VALID,0,VALID,84.3341,VALID,0,VALID,19.0682,VALID,206,VALID,1.61589,
2000-02-03, 03:32:00,VALID,0,VALID,83.9704,VALID,-0.0339617,VALID,19.0719,VALID,212,VALID,1.5771,
2000-02-03, 03:33:00,VALID,0,VALID,83.533,VALID,-0.0849042,VALID,19.1167,VALID,213,VALID,1.95893,
2000-02-03, 03:34:00,VALID,0,VALID,83.4503,VALID,-0.0679233,VALID,19.1783,VALID,213,VALID,1.85567,
2000-02-03, 03:35:00,VALID,0,VALID,83.3232,VALID,0,VALID,19.2074,VALID,207,VALID,1.78926,
2000-02-03, 03:36:00,VALID,0,VALID,83.2176,VALID,-0.0339617,VALID,19.2235,VALID,210,VALID,1.73633,
2000-02-03, 03:37:00,VALID,0,VALID,83.5126,VALID,-0.0509425,VALID,19.2141,VALID,211,VALID,1.10547,
2000-02-03, 03:38:00,VALID,0,VALID,83.5648,VALID,-0.0679233,VALID,19.1855,VALID,207,VALID,1.38487,
2000-02-03, 03:39:00,VALID,0,VALID,83.6411,VALID,-0.0679233,VALID,19.1589,VALID,214,VALID,1.19171,
2000-02-03, 03:40:00,VALID,0,VALID,83.9106,VALID,0,VALID,19.1398,VALID,216,VALID,1.07381,
2000-02-03, 03:41:00,VALID,0,VALID,84.2641,VALID,-0.0679233,VALID,19.0881,VALID,208,VALID,1.28606,
2000-02-03, 03:42:00,VALID,0,VALID,84.4422,VALID,-0.0509425,VALID,19.0168,VALID,226,VALID,1.80977,
2000-02-03, 03:43:01,VALID,0,VALID,84.4651,VALID,-0.0509425,VALID,19.0043,VALID,194,VALID,1.67622,
2000-02-03, 03:44:00,VALID,0,VALID,84.582,VALID,-0.0339617,VALID,18.9944,VALID,213,VALID,1.56476,
2000-02-03, 03:45:00,VALID,0,VALID,84.8059,VALID,-0.0169808,VALID,18.972,VALID,212,VALID,1.14403,
2000-02-03, 03:46:00,VALID,0,VALID,84.8148,VALID,-0.0509425,VALID,18.9298,VALID,179,VALID,1.48828,
2000-02-03, 03:47:00,VALID,0,VALID,84.9292,VALID,0,VALID,18.936,VALID,208,VALID,1.84776,
2000-02-03, 03:48:00,VALID,0,VALID,84.9559,VALID,-0.0339617,VALID,18.9526,VALID,221,VALID,1.86328,
2000-02-03, 03:49:00,VALID,0,VALID,85.0195,VALID,-0.0339617,VALID,18.9397,VALID,222,VALID,1.65495,
2000-02-03, 03:50:00,VALID,0,VALID,85.0653,VALID,-0.0509425,VALID,18.9136,VALID,212,VALID,1.08882,
2000-02-03, 03:51:00,VALID,0,VALID,85.2153,VALID,-0.0339617,VALID,18.9074,VALID,203,VALID,1.39563,
2000-02-03, 03:52:00,VALID,0,VALID,85.1772,VALID,-0.0509425,VALID,18.9009,VALID,223,VALID,1.93956,
2000-02-03, 03:53:00,VALID,0,VALID,84.6355,VALID,-0.0679233,VALID,18.9429,VALID,221,VALID,1.85156,
2000-02-03, 03:54:00,VALID,0,VALID,84.596,VALID,-0.0679233,VALID,19.0048,VALID,223,VALID,1.69004,
2000-02-03, 03:55:00,VALID,0,VALID,84.4689,VALID,-0.0509425,VALID,19.0108,VALID,218,VALID,2.14193,
2000-02-03, 03:56:00,VALID,0,VALID,84.5681,VALID,-0.0169808,VALID,19.0302,VALID,220,VALID,2.57977,
2000-02-03, 03:57:00,VALID,0,VALID,84.6609,VALID,0,VALID,19.0205,VALID,233,VALID,2.01683,
2000-02-03, 03:58:00,VALID,0,VALID,84.6749,VALID,-0.0679233,VALID,18.9979,VALID,219,VALID,2.52611,
2000-02-03, 03:59:00,VALID,0,VALID,84.6418,VALID,-0.0339617,VALID,19.014,VALID,227,VALID,1.54988,
2000-02-03, 04:00:00,VALID,0,VALID,84.5261,VALID,-0.0339617,VALID,19.0205,VALID,217,VALID,2.49453,
2000-02-03, 04:01:00,VALID,0,VALID,84.5871,VALID,-0.0509425,VALID,19.0431,VALID,224,VALID,1.63325,
2000-02-03, 04:02:00,VALID,0,VALID,84.493,VALID,-0.0679233,VALID,19.0237,VALID,225,VALID,2.90646,
2000-02-03, 04:03:00,VALID,0,VALID,84.329,VALID,-0.0509425,VALID,19.0461,VALID,220,VALID,2.54848,
2000-02-03, 04:04:00,VALID,0,VALID,84.2654,VALID,-0.0679233,VALID,19.0687,VALID,222,VALID,2.49938,